TimeCST,TemperatureF,Dew PointF,Humidity,Sea Level PressureIn,VisibilityMPH,Wind Direction,Wind SpeedMPH,Gust SpeedMPH,PrecipitationIn,Events,Conditions,WindDirDegrees,DateUTC
12:15 AM,15.8,7.5,70,30.17,10.0,WNW,11.5,-,N/A,,Clear,290,2013-02-28 06:15:00
12:35 AM,15.8,7.0,68,30.17,10.0,WNW,12.7,-,N/A,,Clear,300,2013-02-28 06:35:00
12:55 AM,15.6,7.2,69,30.17,10.0,WNW,15.0,-,N/A,,Clear,290,2013-02-28 06:55:00
1:15 AM,16.0,7.7,70,30.17,10.0,WNW,15.0,-,N/A,,Clear,290,2013-02-28 07:15:00
1:35 AM,16.7,8.4,70,30.16,10.0,WNW,12.7,-,N/A,,Clear,290,2013-02-28 07:35:00
1:55 AM,18.5,9.3,67,30.17,10.0,WNW,18.4,-,N/A,,Clear,300,2013-02-28 07:55:00
2:15 AM,20.8,10.4,64,30.17,10.0,WNW,18.4,-,N/A,,Clear,300,2013-02-28 08:15:00
2:35 AM,19.4,10.0,67,30.17,10.0,WNW,16.1,20.7,N/A,,Clear,300,2013-02-28 08:35:00
2:55 AM,18.3,10.0,70,30.17,10.0,WNW,15.0,-,N/A,,Clear,300,2013-02-28 08:55:00
3:15 AM,16.9,9.5,73,30.17,10.0,WNW,12.7,-,N/A,,Clear,300,2013-02-28 09:15:00
3:55 AM,21.2,11.5,66,30.15,10.0,WNW,13.8,-,N/A,,Clear,300,2013-02-28 09:55:00
4:15 AM,21.9,12.2,66,30.15,10.0,NW,13.8,-,N/A,,Clear,310,2013-02-28 10:15:00
4:35 AM,21.4,11.7,66,30.14,10.0,WNW,17.3,-,N/A,,Clear,300,2013-02-28 10:35:00
4:55 AM,21.6,11.3,65,30.15,10.0,WNW,15.0,-,N/A,,Clear,300,2013-02-28 10:55:00
5:15 AM,16.7,9.1,72,30.15,10.0,West,10.4,-,N/A,,Clear,280,2013-02-28 11:15:00
5:35 AM,17.6,9.1,69,30.15,10.0,West,11.5,-,N/A,,Clear,280,2013-02-28 11:35:00
5:55 AM,17.1,8.2,68,30.15,10.0,West,4.6,-,N/A,,Clear,280,2013-02-28 11:55:00
6:15 AM,19.9,10.4,67,30.14,10.0,WNW,17.3,-,N/A,,Clear,300,2013-02-28 12:15:00
6:35 AM,21.7,10.8,63,30.15,10.0,WNW,18.4,-,N/A,,Clear,300,2013-02-28 12:35:00
6:55 AM,21.9,10.6,62,30.15,10.0,WNW,18.4,-,N/A,,Clear,300,2013-02-28 12:55:00
7:15 AM,21.9,10.8,62,30.15,10.0,WNW,15.0,25.3,N/A,,Clear,300,2013-02-28 13:15:00
7:35 AM,22.6,10.8,60,30.16,10.0,WNW,18.4,-,N/A,,Clear,300,2013-02-28 13:35:00
7:55 AM,22.8,10.8,60,30.15,10.0,NW,17.3,21.9,N/A,,Clear,310,2013-02-28 13:55:00
8:15 AM,24.3,11.3,58,30.16,10.0,WNW,20.7,28.8,N/A,,Clear,300,2013-02-28 14:15:00
8:35 AM,25.0,11.5,57,30.17,10.0,WNW,16.1,-,N/A,,Clear,300,2013-02-28 14:35:00
8:55 AM,25.2,12.2,58,30.17,10.0,WNW,19.6,25.3,N/A,,Clear,300,2013-02-28 14:55:00
9:15 AM,26.4,12.7,56,30.17,10.0,WNW,20.7,-,N/A,,Clear,300,2013-02-28 15:15:00
9:35 AM,27.5,14.2,57,30.18,10.0,WNW,16.1,-,N/A,,Clear,290,2013-02-28 15:35:00
9:55 AM,29.3,15.6,57,30.18,10.0,WNW,17.3,-,N/A,,Clear,290,2013-02-28 15:55:00
10:15 AM,30.6,15.8,54,30.19,10.0,WNW,21.9,27.6,N/A,,Clear,300,2013-02-28 16:15:00
10:35 AM,31.3,17.1,56,30.19,10.0,WNW,18.4,27.6,N/A,,Clear,300,2013-02-28 16:35:00
10:55 AM,31.8,17.4,55,30.19,10.0,WNW,19.6,28.8,N/A,,Clear,300,2013-02-28 16:55:00
11:15 AM,32.0,18.3,57,30.18,10.0,NW,21.9,27.6,N/A,,Clear,310,2013-02-28 17:15:00
11:55 AM,32.9,19.6,58,30.17,10.0,NW,23.0,31.1,N/A,,Clear,310,2013-02-28 17:55:00
12:15 PM,33.1,20.1,59,30.17,10.0,NW,24.2,33.4,N/A,,Clear,310,2013-02-28 18:15:00
12:35 PM,33.3,20.7,60,30.17,10.0,WNW,20.7,28.8,N/A,,Clear,300,2013-02-28 18:35:00
12:55 PM,34.2,21.6,60,30.17,10.0,WNW,23.0,28.8,N/A,,Clear,300,2013-02-28 18:55:00
1:15 PM,34.3,20.5,57,30.16,10.0,NW,19.6,27.6,N/A,,Clear,310,2013-02-28 19:15:00
1:35 PM,34.7,21.0,57,30.15,10.0,NW,21.9,26.5,N/A,,Clear,310,2013-02-28 19:35:00
1:55 PM,35.2,21.4,57,30.14,10.0,WNW,19.6,24.2,N/A,,Clear,300,2013-02-28 19:55:00
2:15 PM,36.1,22.1,57,30.13,10.0,NW,13.8,19.6,N/A,,Clear,310,2013-02-28 20:15:00
2:35 PM,36.1,20.3,53,30.13,10.0,NW,18.4,24.2,N/A,,Clear,310,2013-02-28 20:35:00
2:55 PM,36.1,21.6,56,30.13,10.0,WNW,20.7,27.6,N/A,,Clear,300,2013-02-28 20:55:00
3:35 PM,37.4,19.9,49,30.13,10.0,NW,16.1,24.2,N/A,,Clear,310,2013-02-28 21:35:00
3:55 PM,36.9,20.8,52,30.13,10.0,NW,15.0,-,N/A,,Mostly Cloudy,310,2013-02-28 21:55:00
4:15 PM,37.2,23.0,56,30.13,10.0,WNW,16.1,-,N/A,,Mostly Cloudy,300,2013-02-28 22:15:00
4:35 PM,36.0,21.7,56,30.13,10.0,NW,16.1,21.9,N/A,,Scattered Clouds,310,2013-02-28 22:35:00
4:55 PM,35.8,21.9,57,30.13,10.0,WNW,17.3,-,N/A,,Clear,300,2013-02-28 22:55:00
5:15 PM,34.9,22.1,60,30.13,10.0,WNW,17.3,-,N/A,,Scattered Clouds,300,2013-02-28 23:15:00
5:35 PM,33.3,21.7,63,30.13,10.0,NW,21.9,26.5,N/A,,Clear,310,2013-02-28 23:35:00
6:15 PM,32.9,21.0,62,30.14,10.0,NW,19.6,26.5,N/A,,Overcast,310,2013-03-01 00:15:00
6:35 PM,32.9,21.2,62,30.15,10.0,NW,15.0,23.0,N/A,,Overcast,310,2013-03-01 00:35:00
6:55 PM,32.4,21.0,63,30.15,10.0,NW,19.6,26.5,N/A,,Overcast,310,2013-03-01 00:55:00
7:15 PM,32.0,20.8,63,30.15,10.0,NW,19.6,24.2,N/A,,Overcast,310,2013-03-01 01:15:00
7:35 PM,30.9,20.3,65,30.15,10.0,WNW,17.3,-,N/A,,Scattered Clouds,300,2013-03-01 01:35:00
7:55 PM,30.2,20.3,67,30.16,10.0,WNW,16.1,-,N/A,,Clear,300,2013-03-01 01:55:00
8:15 PM,30.0,20.3,67,30.16,10.0,NW,16.1,-,N/A,,Clear,310,2013-03-01 02:15:00
8:35 PM,29.3,20.1,69,30.16,10.0,NW,12.7,-,N/A,,Scattered Clouds,310,2013-03-01 02:35:00
8:55 PM,28.9,19.9,69,30.16,10.0,NW,10.4,-,N/A,,Scattered Clouds,310,2013-03-01 02:55:00
9:15 PM,28.8,20.1,70,30.14,10.0,NW,10.4,16.1,N/A,,Mostly Cloudy,310,2013-03-01 03:15:00
9:35 PM,27.5,19.9,73,30.15,10.0,WNW,11.5,-,N/A,,Scattered Clouds,300,2013-03-01 03:35:00
9:55 PM,27.3,19.4,72,30.15,10.0,NW,10.4,-,N/A,,Clear,310,2013-03-01 03:55:00
10:15 PM,27.7,19.9,73,30.16,10.0,NW,10.4,-,N/A,,Clear,310,2013-03-01 04:15:00
10:35 PM,28.4,19.8,70,30.16,10.0,NW,11.5,-,N/A,,Clear,320,2013-03-01 04:35:00
10:55 PM,28.0,19.9,72,30.17,10.0,NNW,11.5,-,N/A,,Scattered Clouds,340,2013-03-01 04:55:00
11:15 PM,28.4,19.4,69,30.17,10.0,NNW,13.8,-,N/A,,Scattered Clouds,330,2013-03-01 05:15:00
11:35 PM,27.9,19.9,72,30.17,10.0,NNW,12.7,-,N/A,,Scattered Clouds,330,2013-03-01 05:35:00
11:55 PM,26.1,19.4,76,30.17,10.0,WNW,9.2,-,N/A,,Scattered Clouds,300,2013-03-01 05:55:00